When you browse on this site, cookies collect data to enhance your experience and personalize the content and advertising you see.
Visit our Privacy Policy to learn more. By continuing to use the site, you agree to this use of cookies and data.
  • In Hungary
  • List of Countries
  • For 7 days
  • Water Temperature
  • Satellite Maps
  • Weather Map
  • News
  • Weather Widgets
  • user-avatar
    Login

    Hourly Weather Nizhnegorskij

    Today, 21 January, Monday

    Time Temperature Precipitation Wind Pressure Humidity
    00:00 +2°C° 0 mm 3 mps 754 mmHg 86%
    01:00 +2°C° 0 mm 3 mps 753 mmHg 86%
    02:00 +2°C° 0 mm 3 mps 753 mmHg 87%
    03:00 +3°C° 0.1 mm 4 mps 752 mmHg 86%
    04:00 +3°C° 0.1 mm 4 mps 751 mmHg 85%
    05:00 +3°C° 0.1 mm 4 mps 751 mmHg 84%
    06:00 +4°C° 0.1 mm 4 mps 751 mmHg 84%
    07:00 +4°C° 0.1 mm 4 mps 750 mmHg 83%
    08:00 +4°C° 0 mm 4 mps 750 mmHg 81%
    09:00 +5°C° 0.1 mm 5 mps 750 mmHg 81%
    10:00 +6°C° 0.1 mm 5 mps 750 mmHg 81%
    11:00 +7°C° 0.1 mm 6 mps 750 mmHg 81%
    12:00 +7°C° 0 mm 6 mps 750 mmHg 83%
    13:00 +6°C° 0 mm 5 mps 750 mmHg 84%
    14:00 +6°C° 0 mm 5 mps 750 mmHg 86%
    15:00 +5°C° 0.1 mm 5 mps 751 mmHg 87%
    16:00 +3°C° 0.1 mm 5 mps 751 mmHg 88%
    17:00 +2°C° 0.1 mm 5 mps 752 mmHg 88%
    18:00 +1°C° 0.1 mm 4 mps 752 mmHg 88%
    19:00 0°C° 0.1 mm 4 mps 752 mmHg 88%
    20:00 -1°C° 0.1 mm 4 mps 753 mmHg 88%
    21:00 -1°C° 0.1 mm 4 mps 753 mmHg 88%
    22:00 -2°C° 0.1 mm 4 mps 754 mmHg 87%
    23:00 -2°C° 0.1 mm 4 mps 754 mmHg 87%

    Tomorrow, 22 January, Tuesday

    Time Temperature Precipitation Wind Pressure Humidity
    00:00 -2°C° 0 mm 4 mps 755 mmHg 86%
    01:00 -3°C° 0 mm 4 mps 755 mmHg 86%
    02:00 -2°C° 0 mm 3 mps 756 mmHg 86%
    03:00 -2°C° 0 mm 3 mps 756 mmHg 86%
    04:00 -4°C° 0 mm 3 mps 756 mmHg 85%
    05:00 -4°C° 0 mm 3 mps 756 mmHg 85%
    06:00 -4°C° 0 mm 3 mps 756 mmHg 85%
    07:00 -4°C° 0 mm 3 mps 757 mmHg 84%
    08:00 -3°C° 0 mm 2 mps 757 mmHg 84%
    09:00 -3°C° 0 mm 2 mps 757 mmHg 79%
    10:00 -2°C° 0 mm 2 mps 757 mmHg 75%
    11:00 -1°C° 0 mm 2 mps 757 mmHg 70%
    12:00 0°C° 0 mm 3 mps 757 mmHg 69%
    13:00 0°C° 0 mm 3 mps 757 mmHg 68%
    14:00 +1°C° 0 mm 3 mps 756 mmHg 66%
    15:00 0°C° 0 mm 3 mps 756 mmHg 71%
    16:00 -1°C° 0 mm 3 mps 756 mmHg 75%
    17:00 -2°C° 0 mm 3 mps 756 mmHg 80%
    18:00 -2°C° 0 mm 3 mps 756 mmHg 80%
    19:00 -3°C° 0 mm 4 mps 755 mmHg 80%
    20:00 -3°C° 0 mm 4 mps 755 mmHg 81%
    21:00 -2°C° 0 mm 3 mps 755 mmHg 81%
    22:00 -2°C° 0 mm 3 mps 755 mmHg 80%
    23:00 -1°C° 0 mm 3 mps 754 mmHg 80%

    Day after tomorrow, 23 January, Wednesday

    Time Temperature Precipitation Wind Pressure Humidity
    00:00 -1°C° 0 mm 3 mps 754 mmHg 81%
    01:00 -1°C° 0 mm 3 mps 754 mmHg 82%
    02:00 -1°C° 0 mm 3 mps 753 mmHg 83%
    03:00 -1°C° 0 mm 3 mps 753 mmHg 83%
    04:00 -1°C° 0 mm 3 mps 752 mmHg 84%
    05:00 0°C° 0 mm 3 mps 752 mmHg 84%
    06:00 0°C° 0 mm 3 mps 752 mmHg 84%
    07:00 0°C° 0 mm 4 mps 752 mmHg 83%
    08:00 0°C° 0 mm 4 mps 751 mmHg 83%
    09:00 +2°C° 0 mm 5 mps 751 mmHg 78%
    10:00 +5°C° 0 mm 5 mps 751 mmHg 74%
    11:00 +7°C° 0 mm 6 mps 751 mmHg 69%
    12:00 +7°C° 0 mm 6 mps 750 mmHg 70%
    13:00 +7°C° 0 mm 6 mps 749 mmHg 71%
    14:00 +6°C° 0 mm 7 mps 749 mmHg 72%
    15:00 +7°C° 0 mm 6 mps 748 mmHg 75%
    16:00 +5°C° 0 mm 6 mps 748 mmHg 77%
    17:00 +5°C° 0 mm 6 mps 748 mmHg 80%
    18:00 +5°C° 0 mm 6 mps 748 mmHg 79%
    19:00 +5°C° 0 mm 6 mps 748 mmHg 77%
    20:00 +5°C° 0 mm 6 mps 748 mmHg 76%
    21:00 +6°C° 0 mm 5 mps 748 mmHg 76%
    22:00 +5°C° 0 mm 5 mps 748 mmHg 75%
    23:00 +5°C° 0 mm 5 mps 748 mmHg 75%

    24 January, Thursday

    Time Temperature Precipitation Wind Pressure Humidity
    00:00 +6°C° 0 mm 5 mps 748 mmHg 75%
    01:00 +6°C° 0 mm 4 mps 748 mmHg 76%
    02:00 +6°C° 0 mm 4 mps 748 mmHg 76%
    03:00 +6°C° 0.3 mm 4 mps 747 mmHg 77%
    04:00 +6°C° 0.3 mm 4 mps 747 mmHg 78%
    05:00 +7°C° 0.3 mm 3 mps 747 mmHg 79%
    06:00 +7°C° 0 mm 3 mps 747 mmHg 79%
    07:00 +7°C° 0 mm 3 mps 748 mmHg 79%
    08:00 +7°C° 0 mm 2 mps 748 mmHg 79%
    09:00 +9°C° 0 mm 2 mps 748 mmHg 75%
    10:00 +10°C° 0 mm 2 mps 748 mmHg 71%
    11:00 +12°C° 0 mm 1 mps 747 mmHg 68%
    12:00 +12°C° 0 mm 2 mps 747 mmHg 67%
    13:00 +12°C° 0 mm 2 mps 747 mmHg 66%
    14:00 +11°C° 0 mm 3 mps 746 mmHg 65%
    15:00 +10°C° 0 mm 3 mps 746 mmHg 69%
    16:00 +9°C° 0 mm 3 mps 746 mmHg 73%
    17:00 +8°C° 0 mm 3 mps 745 mmHg 77%
    18:00 +7°C° 0 mm 3 mps 745 mmHg 78%
    19:00 +7°C° 0 mm 3 mps 745 mmHg 79%
    20:00 +6°C° 0 mm 2 mps 745 mmHg 80%
    21:00 +6°C° 0 mm 2 mps 745 mmHg 79%
    22:00 +6°C° 0 mm 2 mps 745 mmHg 79%
    23:00 +6°C° 0 mm 2 mps 745 mmHg 78%

    25 January, Friday

    Time Temperature Precipitation Wind Pressure Humidity
    00:00 +6°C° 0 mm 2 mps 745 mmHg 78%
    01:00 +7°C° 0 mm 1 mps 745 mmHg 77%
    02:00 +6°C° 0 mm 1 mps 744 mmHg 77%
    03:00 +6°C° 0 mm 1 mps 744 mmHg 78%
    04:00 +6°C° 0 mm 1 mps 745 mmHg 79%
    05:00 +5°C° 0 mm 1 mps 745 mmHg 80%
    06:00 +5°C° 0 mm 1 mps 745 mmHg 83%
    07:00 +4°C° 0 mm 2 mps 746 mmHg 86%
    08:00 +3°C° 0 mm 2 mps 746 mmHg 89%
    09:00 +5°C° 0 mm 1 mps 746 mmHg 84%
    10:00 +6°C° 0 mm 1 mps 746 mmHg 79%
    11:00 +7°C° 0 mm 1 mps 747 mmHg 75%
    12:00 +8°C° 0 mm 1 mps 747 mmHg 72%
    13:00 +9°C° 0 mm 1 mps 747 mmHg 70%
    14:00 +10°C° 0 mm 1 mps 747 mmHg 68%
    15:00 +8°C° 0 mm 2 mps 747 mmHg 73%
    16:00 +6°C° 0 mm 2 mps 747 mmHg 79%
    17:00 +5°C° 0 mm 2 mps 747 mmHg 85%
    18:00 +5°C° 0.1 mm 2 mps 747 mmHg 87%
    19:00 +4°C° 0.1 mm 2 mps 748 mmHg 89%
    20:00 +4°C° 0.1 mm 2 mps 748 mmHg 91%
    21:00 +4°C° 0.1 mm 2 mps 748 mmHg 91%
    22:00 +3°C° 0.1 mm 2 mps 748 mmHg 92%
    23:00 +3°C° 0.1 mm 2 mps 748 mmHg 92%

    26 January, Saturday

    Time Temperature Precipitation Wind Pressure Humidity
    00:00 +3°C° 0 mm 2 mps 748 mmHg 93%
    01:00 +3°C° 0 mm 2 mps 748 mmHg 93%
    02:00 +2°C° 0 mm 2 mps 747 mmHg 94%
    03:00 +2°C° 0 mm 2 mps 747 mmHg 94%
    04:00 +2°C° 0 mm 2 mps 747 mmHg 94%
    05:00 +2°C° 0 mm 2 mps 746 mmHg 94%
    06:00 +2°C° 0 mm 2 mps 747 mmHg 93%
    07:00 +2°C° 0 mm 2 mps 747 mmHg 93%
    08:00 +2°C° 0 mm 2 mps 747 mmHg 93%
    09:00 +2°C° 0.1 mm 3 mps 747 mmHg 91%
    10:00 +2°C° 0.1 mm 3 mps 746 mmHg 89%
    11:00 +3°C° 0.1 mm 3 mps 746 mmHg 87%
    12:00 +3°C° 0.1 mm 3 mps 746 mmHg 86%
    13:00 +3°C° 0.1 mm 3 mps 746 mmHg 85%
    14:00 +3°C° 0.1 mm 3 mps 745 mmHg 84%
    15:00 +3°C° 0 mm 3 mps 746 mmHg 86%
    16:00 +2°C° 0 mm 3 mps 746 mmHg 88%
    17:00 +2°C° 0 mm 3 mps 746 mmHg 90%
    18:00 +3°C° 0 mm 2 mps 746 mmHg 91%
    19:00 +3°C° 0 mm 2 mps 746 mmHg 91%
    20:00 +2°C° 0 mm 2 mps 746 mmHg 91%
    21:00 +2°C° 0.1 mm 2 mps 746 mmHg 91%
    22:00 +2°C° 0.1 mm 2 mps 746 mmHg 91%
    23:00 +2°C° 0.1 mm 2 mps 747 mmHg 91%
    Show more